Preview of NWS' New Version of Forecast
This preview is not operational and should not be used for support decisions.

Regional Weather Roundup (RWR)

Issued by National Weather Service (NWS)

                            
000
ASUS43 KTOP 181959
RWRKS 

WEATHER ROUNDUP FOR KANSAS
NATIONAL WEATHER SERVICE GOODLAND KS
300 PM CDT THU APR 18 2019

NOTE:  "FAIR" INDICATES FEW OR NO CLOUDS BELOW 12,000 FEET WITH NO
SIGNIFICANT WEATHER AND/OR OBSTRUCTIONS TO VISIBILITY.

KSZ001>006-013>018-027>032-041>047-182100-
NORTHWEST KANSAS
  
CITY           SKY/WX    TMP DP  RH WIND       PRES   REMARKS
GOODLAND       LGT RAIN  47  36  65 N28G59    30.10R                  
HAYS           CLOUDY    65  33  30 NW22G32   29.94F                  
HILL CITY      MOSUNNY   62  28  27 N43G58    30.02R                  
RUSSELL        CLOUDY    66  28  24 N29G38    29.92F                  
$$

KSZ061>065-074>080-084>089-182100-
SOUTHWEST KANSAS
  
CITY           SKY/WX    TMP DP  RH WIND       PRES   REMARKS
DODGE CITY     PTSUNNY   62  30  29 N23G39    29.98F                  
GARDEN CITY    MOSUNNY   63  28  26 NW32G46   30.01F                  
GREAT BEND       N/A     59  45  59 N18G28    29.95S                  
LIBERAL        MOSUNNY   64  29  26 NW26G33   30.04F                  
$$

KSZ066>073-081>083-090>101-182100-
SOUTHEAST KANSAS
  
CITY           SKY/WX    TMP DP  RH WIND       PRES   REMARKS
CHANUTE        CLOUDY    66  42  41 N20G30    29.84F                  
COFFEYVILLE    CLOUDY    65  43  44 N21G29    29.82                   
HUTCHINSON     PTSUNNY   63  35  35 N20G31    29.89F                  
MEDICINE LODGE   N/A     64  35  34 NW12G30   29.90F                  
NEWTON         PTSUNNY   63  41  44 N22       29.88F                  
PARSONS          N/A     63  42  46 N20G30    29.84F                  
WICHITA INTL   PTSUNNY   64  38  38 N20G28    29.88F                  
WICHITA JABRA  MOSUNNY   66  39  37 N20G32    29.87F                  
WINFIELD       MOSUNNY   65  42  43 N22G31    29.89F                  
$$

KSZ007>012-019>026-033>040-048>060-102>105-182100-
NORTHEAST KANSAS
  
CITY           SKY/WX    TMP DP  RH WIND       PRES   REMARKS
CONCORDIA      PTSUNNY   67  33  28 N17G29    29.89F                  
EMPORIA        PTSUNNY   61  37  41 N16G29    29.86F                  
LAWRENCE       MOSUNNY   62  37  39 N24G33    29.84F                  
MANHATTAN      PTSUNNY   63  35  35 N12G28    29.87F                  
OLATHE IND     CLOUDY    59  44  57 N18G29    29.84F                  
OLATHE EXE     PTSUNNY   58  40  51 N17G29    29.84F                  
SALINA         LGT RAIN  63  36  36 N23G32    29.89F                  
TOPEKA BILLARD MOSUNNY   65  38  36 N25G38    29.85F                  
TOPEKA FORBES  MOSUNNY   64  37  36 N20G38    29.84F                  
$$